Location: Atlanta
(33.7490°N, 84.3880°W)
Time: 12:20:43
(UTC-04:00)

Daily predictions for brighter satellites

Satellite Brightness Start Highest point End
(mag) Time Altitude Azimuth Time Altitude Azimuth Time Altitude Azimuth
Cosmos 1709 Rocket 4.2 19:52:26 10° SSE 19:58:34 56° E 20:04:46 10° NNE
FENGYUN 3A 3.8 19:58:03 10° SSE 20:03:14 54° ENE 20:08:27 10° N
Cosmos 2369 Rocket 2.3 19:57:56 10° NNW 20:03:28 56° ENE 20:08:58 10° SE
Cosmos 1340 Rocket 3.8 20:02:21 10° NNE 20:05:49 27° ENE 20:09:17 10° SE
USA 234 4.2 19:59:48 10° SSE 20:06:07 51° SW 20:12:28 10° NW
Cosmos 1758 Rocket 4.4 20:02:53 10° NNE 20:06:52 30° ENE 20:10:49 10° SE
Cosmos 389 Rocket 2.7 20:04:03 10° S 20:07:27 47° E 20:10:50 10° NNE
ALOS 2.3 20:03:02 10° SSE 20:07:37 61° ENE 20:12:14 10° N
Geosat 4.0 20:04:51 10° SE 20:09:48 63° ENE 20:14:46 10° NNW
OAO 2 Rocket 3.7 20:04:53 10° W 20:10:10 65° SSW 20:15:25 10° ESE
Cosmos 1726 Rocket 3.9 20:06:44 10° SSE 20:10:53 43° E 20:15:01 10° NNE
Lacrosse 5 1.9 20:06:27 10° NNW 20:11:29 63° NE 20:16:29 10° SE
Cosmos 1271 Rocket 2.6 20:09:51 10° S 20:13:35 77° E 20:17:21 10° N
FREGAT/IRIS 3.1 20:13:40 10° SE 20:16:31 39° ENE 20:19:22 10° N
Resurs 01 Rocket 3.2 20:16:42 12° E 20:18:58 16° ENE 20:21:43 10° NNE
Cosmos 1943 4.3 20:16:12 10° SW 20:21:40 50° WNW 20:27:12 10° N
Cosmos 2263 4.3 20:16:16 10° NNW 20:21:48 57° ENE 20:27:21 10° SE
CZ-2D R/B 4.5 20:26:31 16° ESE 20:28:20 22° ENE 20:31:18 10° NNE
FALCON 9 R/B 1.2 20:26:00 10° W 20:28:39 89° SSE 20:33:20 15° E
Cosmos 468 Rocket 4.3 20:24:26 10° SSW 20:29:36 72° WNW 20:34:51 10° NNE
NOAA 12 4.5 20:25:08 10° S 20:30:19 68° WSW 20:35:33 10° NNW
SJ-6B 3.1 20:27:38 10° SSE 20:31:33 49° ENE 20:35:26 10° N
Cosmos 841 Rocket 3.7 20:26:44 10° S 20:31:37 45° ESE 20:36:30 10° NNE
Cosmos 1937 Rocket 3.8 20:30:01 10° N 20:35:07 46° ENE 20:39:53 11° SE
Cosmos 371 Rocket 4.2 20:32:22 10° SSW 20:37:05 52° WNW 20:41:52 10° N
Cosmos 1378 3.4 20:33:28 10° N 20:37:06 44° E 20:40:42 10° SSE
USA 229 DEB 3.9 20:33:34 10° NNW 20:40:42 61° ENE 20:46:57 14° SE
USA 229 3.9 20:33:40 10° NNW 20:40:48 60° ENE 20:46:59 15° SE
HJ-1C 3.3 20:41:28 10° SSE 20:44:47 66° ENE 20:48:06 10° N
Cosmos 2058 Rocket 2.9 20:41:30 10° S 20:45:50 83° E 20:50:12 10° N
Cosmos 2084 3.2 20:45:09 10° SSW 20:49:20 89° ESE 20:53:18 10° NNE
Cosmos 2228 2.9 20:46:18 10° S 20:50:41 87° E 20:55:03 10° N
Cosmos 1953 Rocket 3.6 20:48:57 10° N 20:53:17 78° W 20:57:34 10° S
Cosmos 1763 Rocket 3.6 20:49:28 10° SSW 20:54:32 76° WNW 20:59:41 10° NNE
Shenzhou-11 Module 4.4 20:53:36 10° W 20:55:44 17° SW 20:57:18 13° S
MOS 1-B Rocket 4.4 20:55:10 20° SE 20:59:13 43° ENE 21:04:42 10° N
ATLAS CENTAUR R/B 3.2 20:51:49 10° NW 21:03:44 51° NE 21:05:46 34° E
Cosmos 540 Rocket 3.7 20:59:06 10° S 21:03:54 43° ESE 21:08:43 10° NNE
Meteor 2-5 Rocket 3.7 21:00:06 10° N 21:05:59 89° W 21:11:44 10° S
GEOS 3 Rocket 3.6 21:03:24 10° NE 21:08:48 75° ESE 21:14:08 10° SSW
H-2A R/B 4.0 21:07:21 10° S 21:10:49 39° W 21:14:20 10° NNW
Meteor 1-22 Rocket 4.1 21:05:46 10° S 21:11:37 81° E 21:17:15 10° N
Cosmos 1943 Rocket 2.6 21:06:51 10° NNW 21:12:21 61° WSW 21:17:52 10° S
Spot 2 Rocket 3.5 21:12:52 40° SE 21:14:27 59° ENE 21:19:24 10° N
Cosmos 836 Rocket 4.4 21:11:01 10° S 21:16:13 63° ESE 21:21:27 10° NNE
BREEZE-M DEB (TANK) 4.0 21:04:11 10° WSW 21:18:19 68° NW 21:21:11 24° NE
Cosmos 1766 3.2 21:15:29 10° S 21:19:25 83° W 21:23:22 10° N
OAO 3 Copernicus 4.2 21:16:40 10° WSW 21:21:44 87° SSE 21:22:40 60° E
GPS 2-04 Rocket1 3.9 21:18:19 10° W 21:22:15 34° SSW 21:22:45 33° S
Cosmos 2154 Rocket 3.9 21:22:07 17° SSE 21:26:52 61° E 21:33:00 10° NNE
COSMOS 2406 3.1 21:22:26 10° SSW 21:28:07 90° WNW 21:33:52 10° NNE
Tiangong 2 3.6 21:28:47 10° W 21:30:36 17° SW 21:30:36 17° SW
Cosmos 1125 Rocket 4.3 21:35:01 10° N 21:38:48 38° NNE 21:38:48 38° NNE
Resurs 1-3 4.0 21:40:34 54° SW 21:41:06 59° W 21:45:26 10° NNW
Envisat 3.1 21:45:42 61° SSW 21:46:25 71° WSW 21:51:30 10° NNW
Lacrosse 5 4.3 21:50:59 10° W 21:53:56 16° WSW 21:56:38 11° SSW
Cosmos 1656 Rocket 3.9 21:49:26 10° NNW 21:55:00 63° WSW 21:55:34 59° SW
Resurs 01 Rocket 2.9 21:54:17 34° WSW 21:55:07 37° W 21:59:13 10° NNW
Nadezhda 3 Rocket 3.9 21:59:19 10° N 22:05:26 82° NW 22:05:26 82° NW
BREEZE-M (TANK) 4.0 21:58:21 10° NW 22:05:13 46° W 22:05:13 46° W
ATLAS 2AS CENTAUR R/B 4.3 22:20:40 10° N 22:25:45 25° NNE 22:25:45 25° NNE
Milstar 3 Cent rocket 4.4 22:25:16 10° WSW 22:25:52 13° WSW 22:25:52 13° WSW
NOSS 3-1 (A) 4.2 22:28:36 10° NW 22:36:22 68° WSW 22:36:22 68° WSW
